When you browse on this site, cookies collect data to enhance your experience and personalize the content and advertising you see.
Visit our Privacy Policy to learn more. By continuing to use the site, you agree to this use of cookies and data.
  • In Hungary
  • List of Countries
  • For 7 days
  • Water Temperature
  • Weather Map
  • News
  • Weather Widgets
  • user-avatar
    Login

    Hourly Weather Kindyakovo

    Today, 22 January, Wednesday

    Time Temperature Precipitation Wind Pressure Humidity
    00:00 -4°C° 0.2 mm 7 mps 744 mmHg 94%
    01:00 -4°C° 0.8 mm 6 mps 743 mmHg 95%
    02:00 -4°C° 0.8 mm 6 mps 742 mmHg 96%
    03:00 -4°C° 0 mm 5 mps 741 mmHg 97%
    04:00 -2°C° 0.8 mm 5 mps 740 mmHg 97%
    05:00 -2°C° 0.8 mm 5 mps 739 mmHg 97%
    06:00 -2°C° 0.8 mm 4 mps 738 mmHg 97%
    07:00 -2°C° 0.5 mm 4 mps 738 mmHg 98%
    08:00 -1°C° 0.5 mm 4 mps 738 mmHg 98%
    09:00 -1°C° 0.5 mm 4 mps 738 mmHg 99%
    10:00 -1°C° 0 mm 5 mps 738 mmHg 97%
    11:00 -1°C° 0 mm 5 mps 738 mmHg 95%
    12:00 -2°C° 0 mm 6 mps 738 mmHg 93%
    13:00 -3°C° 0 mm 6 mps 739 mmHg 90%
    14:00 -3°C° 0 mm 6 mps 739 mmHg 88%
    15:00 -4°C° 0 mm 6 mps 740 mmHg 86%
    16:00 -5°C° 0 mm 5 mps 740 mmHg 87%
    17:00 -5°C° 0 mm 4 mps 740 mmHg 88%
    18:00 -5°C° 0 mm 4 mps 741 mmHg 88%
    19:00 -7°C° 0 mm 4 mps 741 mmHg 90%
    20:00 -6°C° 0 mm 3 mps 741 mmHg 91%
    21:00 -6°C° 0 mm 3 mps 741 mmHg 92%
    22:00 -7°C° 0 mm 3 mps 741 mmHg 93%
    23:00 -8°C° 0 mm 3 mps 741 mmHg 93%

    Tomorrow, 23 January, Thursday

    Time Temperature Precipitation Wind Pressure Humidity
    00:00 -8°C° 0 mm 3 mps 741 mmHg 94%
    01:00 -8°C° 0 mm 2 mps 741 mmHg 94%
    02:00 -8°C° 0 mm 2 mps 741 mmHg 94%
    03:00 -9°C° 0 mm 2 mps 741 mmHg 94%
    04:00 -9°C° 0 mm 2 mps 741 mmHg 94%
    05:00 -9°C° 0 mm 2 mps 741 mmHg 94%
    06:00 -10°C° 0 mm 2 mps 741 mmHg 94%
    07:00 -9°C° 0 mm 2 mps 741 mmHg 94%
    08:00 -9°C° 0 mm 2 mps 742 mmHg 94%
    09:00 -8°C° 0 mm 2 mps 742 mmHg 94%
    10:00 -7°C° 0 mm 2 mps 742 mmHg 93%
    11:00 -6°C° 0 mm 2 mps 742 mmHg 93%
    12:00 -5°C° 0 mm 2 mps 741 mmHg 92%
    13:00 -5°C° 0.1 mm 2 mps 742 mmHg 93%
    14:00 -5°C° 0.1 mm 2 mps 742 mmHg 94%
    15:00 -4°C° 0.1 mm 2 mps 743 mmHg 95%
    16:00 -5°C° 0 mm 2 mps 743 mmHg 95%
    17:00 -6°C° 0 mm 2 mps 744 mmHg 95%
    18:00 -7°C° 0 mm 2 mps 744 mmHg 94%
    19:00 -8°C° 0 mm 3 mps 745 mmHg 94%
    20:00 -10°C° 0 mm 4 mps 745 mmHg 94%
    21:00 -10°C° 0 mm 4 mps 746 mmHg 93%
    22:00 -11°C° 0 mm 4 mps 747 mmHg 93%
    23:00 -10°C° 0 mm 3 mps 747 mmHg 93%

    Day after tomorrow, 24 January, Friday

    Time Temperature Precipitation Wind Pressure Humidity
    00:00 -12°C° 0 mm 3 mps 748 mmHg 94%
    01:00 -13°C° 0 mm 3 mps 748 mmHg 94%
    02:00 -14°C° 0 mm 3 mps 749 mmHg 94%
    03:00 -15°C° 0 mm 3 mps 750 mmHg 95%
    04:00 -15°C° 0 mm 3 mps 750 mmHg 95%
    05:00 -15°C° 0 mm 3 mps 751 mmHg 95%
    06:00 -16°C° 0 mm 3 mps 751 mmHg 95%
    07:00 -15°C° 0 mm 2 mps 752 mmHg 95%
    08:00 -14°C° 0 mm 2 mps 752 mmHg 94%
    09:00 -14°C° 0 mm 2 mps 753 mmHg 94%
    10:00 -14°C° 0 mm 3 mps 753 mmHg 93%
    11:00 -12°C° 0 mm 3 mps 753 mmHg 92%
    12:00 -10°C° 0 mm 3 mps 754 mmHg 90%
    13:00 -10°C° 0 mm 3 mps 754 mmHg 90%
    14:00 -12°C° 0 mm 3 mps 754 mmHg 90%
    15:00 -12°C° 0 mm 3 mps 754 mmHg 89%
    16:00 -13°C° 0 mm 3 mps 754 mmHg 90%
    17:00 -14°C° 0 mm 3 mps 754 mmHg 91%
    18:00 -15°C° 0 mm 3 mps 754 mmHg 92%
    19:00 -16°C° 0 mm 4 mps 753 mmHg 91%
    20:00 -15°C° 0 mm 4 mps 753 mmHg 91%
    21:00 -15°C° 0 mm 4 mps 753 mmHg 91%
    22:00 -15°C° 0 mm 5 mps 752 mmHg 89%
    23:00 -15°C° 0 mm 5 mps 752 mmHg 88%

    25 January, Saturday

    Time Temperature Precipitation Wind Pressure Humidity
    00:00 -15°C° 0 mm 5 mps 751 mmHg 86%
    01:00 -15°C° 0.1 mm 6 mps 751 mmHg 88%
    02:00 -15°C° 0.1 mm 6 mps 750 mmHg 90%
    03:00 -14°C° 0.1 mm 7 mps 749 mmHg 92%
    04:00 -13°C° 0.4 mm 7 mps 748 mmHg 92%
    05:00 -12°C° 0.4 mm 7 mps 747 mmHg 92%
    06:00 -12°C° 0.4 mm 7 mps 746 mmHg 93%
    07:00 -9°C° 0.2 mm 7 mps 746 mmHg 92%
    08:00 -8°C° 0.2 mm 6 mps 746 mmHg 92%
    09:00 -6°C° 0.2 mm 6 mps 746 mmHg 91%
    10:00 -5°C° 0 mm 6 mps 746 mmHg 89%
    11:00 -5°C° 0 mm 6 mps 746 mmHg 87%
    12:00 -4°C° 0 mm 6 mps 746 mmHg 85%
    13:00 -4°C° 0 mm 5 mps 746 mmHg 86%
    14:00 -4°C° 0 mm 4 mps 746 mmHg 88%
    15:00 -5°C° 0 mm 3 mps 746 mmHg 89%
    16:00 -6°C° 0 mm 3 mps 746 mmHg 90%
    17:00 -6°C° 0 mm 3 mps 746 mmHg 91%
    18:00 -7°C° 0 mm 3 mps 746 mmHg 91%
    19:00 -6°C° 0.2 mm 3 mps 745 mmHg 93%
    20:00 -6°C° 0.2 mm 3 mps 745 mmHg 95%
    21:00 -5°C° 0.2 mm 3 mps 744 mmHg 96%
    22:00 -4°C° 0.5 mm 4 mps 743 mmHg 97%
    23:00 -3°C° 0.5 mm 4 mps 742 mmHg 97%

    26 January, Sunday

    Time Temperature Precipitation Wind Pressure Humidity
    00:00 -2°C° 0.5 mm 5 mps 741 mmHg 97%
    01:00 -2°C° 0.4 mm 5 mps 741 mmHg 97%
    02:00 -3°C° 0.4 mm 6 mps 740 mmHg 97%
    03:00 -2°C° 0.4 mm 6 mps 739 mmHg 97%
    04:00 -3°C° 0.2 mm 6 mps 739 mmHg 95%
    05:00 -4°C° 0.2 mm 6 mps 738 mmHg 92%
    06:00 -4°C° 0.2 mm 6 mps 738 mmHg 90%
    07:00 -4°C° 0.1 mm 7 mps 738 mmHg 89%
    08:00 -6°C° 0.1 mm 8 mps 739 mmHg 88%
    09:00 -6°C° 0.1 mm 9 mps 740 mmHg 87%
    10:00 -8°C° 0.1 mm 9 mps 740 mmHg 86%
    11:00 -8°C° 0.1 mm 9 mps 741 mmHg 86%
    12:00 -8°C° 0.1 mm 9 mps 742 mmHg 85%
    13:00 -8°C° 0.1 mm 9 mps 742 mmHg 87%
    14:00 -8°C° 0.1 mm 9 mps 743 mmHg 89%
    15:00 -8°C° 0.1 mm 9 mps 744 mmHg 90%
    16:00 -8°C° 0.1 mm 8 mps 745 mmHg 88%
    17:00 -8°C° 0.1 mm 8 mps 746 mmHg 87%
    18:00 -10°C° 0.1 mm 8 mps 747 mmHg 85%
    19:00 -9°C° 0 mm 7 mps 748 mmHg 86%
    20:00 -11°C° 0 mm 7 mps 749 mmHg 88%
    21:00 -10°C° 0 mm 6 mps 750 mmHg 89%
    22:00 -11°C° 0 mm 6 mps 751 mmHg 89%
    23:00 -12°C° 0 mm 6 mps 751 mmHg 88%

    27 January, Monday

    Time Temperature Precipitation Wind Pressure Humidity
    00:00 -14°C° 0 mm 6 mps 752 mmHg 88%
    01:00 -15°C° 0 mm 6 mps 753 mmHg 89%
    02:00 -16°C° 0 mm 6 mps 754 mmHg 89%
    03:00 -17°C° 0 mm 6 mps 755 mmHg 90%
    04:00 -18°C° 0 mm 6 mps 756 mmHg 90%
    05:00 -18°C° 0 mm 5 mps 757 mmHg 91%
    06:00 -19°C° 0 mm 5 mps 758 mmHg 91%
    07:00 -19°C° 0 mm 5 mps 759 mmHg 91%
    08:00 -19°C° 0 mm 5 mps 760 mmHg 91%
    09:00 -20°C° 0 mm 5 mps 761 mmHg 91%
    10:00 -19°C° 0 mm 5 mps 762 mmHg 91%
    11:00 -19°C° 0 mm 5 mps 763 mmHg 91%
    12:00 -19°C° 0 mm 5 mps 764 mmHg 90%
    13:00 -18°C° 0 mm 4 mps 764 mmHg 91%
    14:00 -17°C° 0 mm 3 mps 765 mmHg 92%
    15:00 -18°C° 0 mm 3 mps 765 mmHg 93%
    16:00 -18°C° 0 mm 2 mps 766 mmHg 94%
    17:00 -19°C° 0 mm 2 mps 767 mmHg 95%
    18:00 -19°C° 0 mm 1 mps 768 mmHg 96%
    19:00 -19°C° 0 mm 1 mps 768 mmHg 96%
    20:00 -20°C° 0 mm 1 mps 768 mmHg 96%
    21:00 -20°C° 0 mm 0 mps 768 mmHg 96%
    22:00 -20°C° 0 mm 1 mps 768 mmHg 94%
    23:00 -19°C° 0 mm 1 mps 768 mmHg 93%
    Show more